Regional Weather Roundup
Issued by NWS

Home | Current Version | Previous Version | Text Only | Print | Product List | Glossary On
Versions: 1 2 3 4 5 6 7 8 9 10 11 12 13 14 15 16 17 18 19 20 21 22 23 24 25 26 27 28 29 30 31 32 33 34 35 36 37 38 39 40 41 42 43 44 45 46 47 48 49 50
000
ASUS44 KJAN 261510
RWRMS

MISSISSIPPI HOURLY WEATHER ROUNDUP
NATIONAL WEATHER SERVICE JACKSON MS
900 AM CST FRI DEC 26 2014

NOTE: "FAIR: INDICATES FEW OR NO CLOUDS BELOW 12,000 FEET WITH NO
SIGNIFICANT WEATHER AND/OR OBSTRUCTIONS TO VISIBILITY.

MSZ001>002-007>008-010>013-018>021-025>028-034>036-261600-
NORTHWEST MISSISSIPPI

CITY           SKY/WX    TMP DP  RH WIND       PRES   REMARKS
CLARKSDALE     FAIR      45  39  81 SE9       30.25S
CLEVELAND      FAIR      45  40  83 SE15      30.23R
GREENWOOD      NOT AVBL
GREENVILLE     CLOUDY    44  40  85 SE10      30.21F
GRENADA        FAIR      41  39  93 CALM      30.28S
OLIVE BRANCH   PTSUNNY   41  39  93 SE8       30.25R
OXFORD         FAIR      39  36  87 SE6       30.29R WCI  35
TUNICA         PTSUNNY   43  39  87 S8        30.25S
$$

MSZ003>006-009-014>017-022>024-029>033-037>039-261600-
NORTHEAST MISSISSIPPI

CITY           SKY/WX    TMP DP  RH WIND       PRES   REMARKS
COLUMBUS AFB   CLOUDY    41  40  99 SE6       30.32R
CORINTH        FAIR      43  37  81 SE6       30.29S
GOLDN TRIANGLE SUNNY     39  36  87 SE9       30.31R WCI  33
STARKVILLE     FAIR      37  37 100 CALM      30.32R
TUPELO         CLOUDY    40  36  86 MISG      30.31R
$$

MSZ040-058-261600-
CENTRAL MISSISSIPPI

CITY           SKY/WX    TMP DP  RH WIND       PRES   REMARKS
JACKSON INTL   CLOUDY    47  41  80 E6        30.26F
JACKSON HAWKNS CLOUDY    46  39  76 SE6       30.27R
MERIDIAN KEY   PTSUNNY   43  39  86 NE5       30.33R
MERIDIAN NAS   PTSUNNY   41  38  89 E3        30.34R
RAYMOND        FAIR      45  39  81 E7        30.26S
VICKSBURG      CLOUDY    45  40  82 SE9       30.24R
$$

MSZ059>079-261600-
SOUTH MISSISSIPPI

CITY           SKY/WX    TMP DP  RH WIND       PRES   REMARKS
HATTIESBURG    CLOUDY    44  41  89 CALM      30.31R
MCCOMB         CLOUDY    46  42  86 VRB5      30.24R
NATCHEZ        CLOUDY    48  43  81 E7        30.23R
PINE BELT      PTSUNNY   45  39  81 NE6       30.30R
$$

MSZ080>082-261600-
COASTAL MISSISSIPPI

CITY           SKY/WX    TMP DP  RH WIND       PRES   REMARKS
BAY ST LOUIS   MOSUNNY   48  45  87 NE7       30.26R
BILOXI         PTSUNNY   48  45  91 NE6       30.27R
PASCAGOULA     CLOUDY    48  45  89 N7        30.27R
GULFPORT       PTSUNNY   49  44  83 NE5       30.26R
$$


USA.gov is the U.S. government's official web portal to all federal, state and local government web resources and services.